TimeCDT,TemperatureF,Dew PointF,Humidity,Sea Level PressureIn,VisibilityMPH,Wind Direction,Wind SpeedMPH,Gust SpeedMPH,PrecipitationIn,Events,Conditions,WindDirDegrees,DateUTC
12:55 AM,31.1,28.6,90,29.98,10.0,West,4.6,-,N/A,,Clear,260,2012-10-14 05:55:00
1:55 AM,30.6,28.2,91,29.96,10.0,NW,8.1,-,N/A,,Clear,320,2012-10-14 06:55:00
2:55 AM,29.3,27.3,92,29.98,10.0,WNW,5.8,-,N/A,,Clear,290,2012-10-14 07:55:00
3:55 AM,28.8,27.0,93,29.96,10.0,Calm,Calm,-,N/A,,Clear,0,2012-10-14 08:55:00
4:55 AM,29.1,27.3,93,29.98,10.0,West,4.6,-,N/A,,Clear,270,2012-10-14 09:55:00
5:55 AM,30.2,27.9,91,30.01,10.0,Calm,Calm,-,N/A,,Clear,0,2012-10-14 10:55:00
6:55 AM,27.0,25.2,93,30.01,10.0,ESE,3.5,-,N/A,,Clear,120,2012-10-14 11:55:00
7:55 AM,28.8,27.1,94,30.02,10.0,SSE,3.5,-,N/A,,Mostly Cloudy,160,2012-10-14 12:55:00
8:55 AM,32.9,30.7,92,30.02,10.0,Calm,Calm,-,N/A,,Overcast,0,2012-10-14 13:55:00
9:55 AM,37.8,34.9,89,30.00,10.0,Calm,Calm,-,N/A,,Mostly Cloudy,0,2012-10-14 14:55:00
10:55 AM,45.9,37.6,73,30.00,10.0,Calm,Calm,-,N/A,,Clear,0,2012-10-14 15:55:00
11:55 AM,54.3,38.7,55,29.98,10.0,Calm,Calm,-,N/A,,Clear,0,2012-10-14 16:55:00
12:55 PM,58.6,38.5,47,29.96,10.0,Variable,3.5,-,N/A,,Clear,0,2012-10-14 17:55:00
1:55 PM,62.6,38.7,41,29.94,10.0,WSW,4.6,-,N/A,,Clear,240,2012-10-14 18:55:00
2:55 PM,63.5,39.0,41,29.91,10.0,West,9.2,-,N/A,,Clear,280,2012-10-14 19:55:00
3:55 PM,65.5,38.8,38,29.91,10.0,West,10.4,-,N/A,,Clear,280,2012-10-14 20:55:00
4:55 PM,65.5,38.5,37,29.89,10.0,West,6.9,-,N/A,,Clear,270,2012-10-14 21:55:00
5:55 PM,64.2,38.8,39,29.88,10.0,SW,6.9,-,N/A,,Clear,230,2012-10-14 22:55:00
6:55 PM,58.6,39.0,48,29.89,10.0,SW,5.8,-,N/A,,Clear,230,2012-10-14 23:55:00
7:55 PM,50.0,37.2,62,29.90,10.0,WSW,8.1,-,N/A,,Clear,250,2012-10-15 00:55:00
8:55 PM,44.2,35.8,72,29.91,10.0,WSW,8.1,-,N/A,,Clear,250,2012-10-15 01:55:00
9:55 PM,41.9,35.2,77,29.90,10.0,SW,9.2,-,N/A,,Clear,230,2012-10-15 02:55:00
10:55 PM,39.2,34.2,82,29.87,10.0,SW,6.9,-,N/A,,Clear,220,2012-10-15 03:55:00
11:55 PM,42.4,36.0,78,29.85,10.0,SSW,6.9,-,N/A,,Clear,210,2012-10-15 04:55:00